VJT679 MGGT-MMMX

Flight info

Callsign VJT679
Flight time 0h -9m
Altitude 43000
Route OMISO3A OMISO UA552 MTT UT112 LARLO LARLO4A
Aircraft C700/M-SBDGHM1RWXY/LB2

Departure

Time 2026-05-08 17:40
Airport La Aurora International Airport (MGGT)

Arrival

Time 2026-05-08 17:30
Airport Mexico City Benito Juárez International Airport (MMMX)
Time Latitude Longitude Altitude Speed Heading
2026-05-08 17:30 19.44096 -99.07235 7297 ft 0 kts 328°
2026-05-08 17:33 14.58524 -90.52868 4915 ft 0 kts 287°
2026-05-08 17:36 14.58517 -90.52856 4917 ft 2 kts 348°
2026-05-08 17:36 14.58507 -90.52856 4917 ft 0 kts 14°
2026-05-08 17:37 14.58509 -90.52855 4917 ft 1 kts 20°
2026-05-08 17:37 14.58510 -90.52820 4915 ft 8 kts 106°
2026-05-08 17:37 14.58469 -90.52774 4913 ft 11 kts 189°
2026-05-08 17:38 14.58386 -90.52800 4912 ft 14 kts 197°
2026-05-08 17:38 14.58275 -90.52837 4910 ft 19 kts 198°
2026-05-08 17:38 14.58131 -90.52883 4901 ft 24 kts 197°
2026-05-08 17:38 14.57959 -90.52939 4896 ft 28 kts 198°
2026-05-08 17:39 14.57752 -90.53005 4890 ft 33 kts 198°
2026-05-08 17:39 14.57531 -90.53077 4883 ft 25 kts 198°
2026-05-08 17:39 14.57446 -90.53050 4882 ft 11 kts 62°
2026-05-08 17:39 14.57544 -90.53002 4886 ft 41 kts 17°
2026-05-08 17:40 14.58121 -90.52816 4905 ft 131 kts 17°
2026-05-08 17:40 14.59186 -90.52487 5208 ft 177 kts 13°
2026-05-08 17:40 14.60498 -90.52095 5848 ft 207 kts 18°
2026-05-08 17:40 14.61917 -90.51632 6498 ft 219 kts 15°
2026-05-08 17:41 14.63413 -90.51226 7149 ft 224 kts 14°
2026-05-08 17:41 14.64919 -90.50779 7794 ft 227 kts 16°
2026-05-08 17:41 14.66445 -90.50310 8435 ft 230 kts 15°
2026-05-08 17:41 14.67962 -90.49847 9062 ft 231 kts 16°
2026-05-08 17:42 14.69513 -90.49372 9699 ft 233 kts 16°
2026-05-08 17:42 14.71081 -90.48899 10330 ft 235 kts 15°
2026-05-08 17:42 14.72658 -90.48420 10957 ft 238 kts 16°
2026-05-08 17:42 14.74287 -90.48163 11572 ft 239 kts 352°
2026-05-08 17:43 14.75738 -90.48927 12198 ft 240 kts 311°
2026-05-08 17:43 14.76411 -90.50486 12822 ft 241 kts 281°
2026-05-08 17:43 14.76638 -90.52216 13456 ft 245 kts 277°
2026-05-08 17:43 14.76891 -90.53966 14083 ft 247 kts 280°
2026-05-08 17:44 14.77098 -90.55128 14505 ft 249 kts 281°
2026-05-08 17:44 14.77417 -90.56895 15133 ft 251 kts 280°
2026-05-08 17:44 14.77729 -90.58683 15762 ft 254 kts 280°
2026-05-08 17:44 14.78043 -90.60490 16388 ft 257 kts 280°
2026-05-08 17:45 14.78465 -90.62919 17220 ft 261 kts 280°
2026-05-08 17:45 14.78629 -90.64176 17634 ft 262 kts 271°
2026-05-08 17:45 14.78338 -90.66036 18258 ft 265 kts 252°
2026-05-08 17:45 14.77486 -90.67718 18882 ft 267 kts 232°
2026-05-08 17:46 14.76219 -90.69141 19517 ft 271 kts 227°
2026-05-08 17:46 14.75224 -90.70761 20118 ft 273 kts 249°
2026-05-08 17:46 14.74815 -90.72706 20757 ft 277 kts 268°
2026-05-08 17:46 14.75071 -90.74646 21376 ft 278 kts 288°
2026-05-08 17:47 14.75971 -90.76417 22003 ft 282 kts 307°
2026-05-08 17:47 14.77234 -90.77988 22635 ft 285 kts 309°
2026-05-08 17:47 14.78513 -90.79572 23265 ft 289 kts 309°
2026-05-08 17:47 14.79817 -90.81171 23894 ft 292 kts 310°
2026-05-08 17:48 14.81131 -90.82789 24522 ft 295 kts 309°
2026-05-08 17:48 14.82458 -90.84426 25151 ft 298 kts 309°
2026-05-08 17:48 14.83794 -90.86076 25775 ft 301 kts 309°
2026-05-08 17:48 14.85148 -90.87743 26401 ft 304 kts 309°
2026-05-08 17:49 14.86512 -90.89428 27027 ft 307 kts 309°
2026-05-08 17:49 14.87889 -90.91128 27659 ft 309 kts 309°
2026-05-08 17:49 14.89275 -90.92841 28278 ft 311 kts 309°
2026-05-08 17:49 14.90663 -90.94552 28897 ft 312 kts 310°
2026-05-08 17:50 14.92056 -90.96274 29517 ft 312 kts 309°
2026-05-08 17:50 14.93452 -90.98000 30135 ft 313 kts 309°
2026-05-08 17:50 14.94832 -90.99703 30749 ft 313 kts 309°
2026-05-08 17:50 14.96230 -91.01434 31358 ft 312 kts 309°
2026-05-08 17:51 14.97619 -91.03148 31967 ft 309 kts 309°
2026-05-08 17:51 14.98993 -91.04849 32575 ft 305 kts 309°
2026-05-08 17:51 15.00347 -91.06522 33180 ft 301 kts 309°
2026-05-08 17:51 15.01674 -91.08165 33765 ft 295 kts 309°
2026-05-08 17:52 15.02978 -91.09778 34358 ft 289 kts 309°
2026-05-08 17:52 15.04250 -91.11352 34948 ft 281 kts 309°
2026-05-08 17:52 15.06682 -91.14362 36088 ft 262 kts 309°
2026-05-08 17:53 15.07825 -91.15782 36640 ft 251 kts 309°
2026-05-08 17:53 15.08916 -91.17129 37173 ft 237 kts 309°
2026-05-08 17:53 15.09939 -91.18401 37624 ft 225 kts 309°
2026-05-08 17:53 15.10945 -91.19644 37637 ft 234 kts 310°
2026-05-08 17:54 15.12019 -91.20974 37603 ft 244 kts 309°
2026-05-08 17:54 15.13085 -91.22298 37995 ft 233 kts 309°
2026-05-08 17:54 15.14112 -91.23565 38244 ft 230 kts 309°
2026-05-08 17:54 15.15163 -91.24876 38144 ft 243 kts 309°
2026-05-08 17:55 15.16255 -91.26225 38304 ft 242 kts 309°
2026-05-08 17:55 15.17311 -91.27535 38686 ft 232 kts 309°
2026-05-08 17:55 15.18352 -91.28829 38718 ft 239 kts 309°
2026-05-08 17:55 15.19444 -91.30180 38678 ft 247 kts 309°
2026-05-08 17:56 15.20529 -91.31532 38987 ft 239 kts 309°
2026-05-08 17:56 15.21585 -91.32837 39223 ft 236 kts 309°
2026-05-08 17:56 15.22655 -91.34168 39147 ft 246 kts 309°
2026-05-08 17:56 15.23762 -91.35542 39231 ft 248 kts 309°
2026-05-08 17:57 15.24847 -91.36886 39542 ft 239 kts 309°
2026-05-08 17:57 15.25912 -91.38215 39601 ft 243 kts 309°
2026-05-08 17:57 15.27019 -91.39583 39526 ft 251 kts 309°
2026-05-08 17:57 15.28130 -91.40968 39747 ft 246 kts 309°
2026-05-08 17:58 15.29215 -91.42315 39944 ft 243 kts 309°
2026-05-08 17:58 15.30312 -91.43677 39883 ft 250 kts 309°
2026-05-08 17:58 15.31433 -91.45076 39926 ft 252 kts 309°
2026-05-08 17:58 15.32530 -91.46432 40177 ft 245 kts 309°
2026-05-08 17:59 15.33615 -91.47789 40275 ft 246 kts 309°
2026-05-08 17:59 15.34729 -91.49172 40204 ft 253 kts 309°
2026-05-08 17:59 15.35862 -91.50585 40278 ft 256 kts 309°
2026-05-08 17:59 15.37051 -91.52062 39900 ft 282 kts 309°
2026-05-08 18:00 15.38363 -91.53695 39613 ft 305 kts 309°
2026-05-08 18:00 15.41229 -91.57268 39263 ft 343 kts 309°
2026-05-08 18:00 15.42817 -91.59250 38750 ft 372 kts 309°
2026-05-08 18:01 15.44536 -91.61391 38222 ft 400 kts 309°
2026-05-08 18:01 15.46374 -91.63682 37693 ft 426 kts 309°
2026-05-08 18:01 15.48327 -91.66119 37147 ft 451 kts 309°
2026-05-08 18:01 15.50358 -91.68655 36586 ft 461 kts 309°
2026-05-08 18:02 15.52411 -91.71215 35999 ft 462 kts 309°
2026-05-08 18:02 15.53773 -91.72916 35595 ft 463 kts 309°
2026-05-08 18:02 15.56501 -91.76324 34761 ft 462 kts 309°
2026-05-08 18:02 15.58550 -91.78885 34115 ft 461 kts 309°
2026-05-08 18:03 15.60597 -91.81443 33456 ft 461 kts 309°
2026-05-08 18:03 15.62653 -91.84014 32792 ft 464 kts 309°
2026-05-08 18:03 15.64716 -91.86594 32120 ft 463 kts 309°
2026-05-08 18:03 15.66770 -91.89166 31447 ft 462 kts 309°
2026-05-08 18:04 15.68827 -91.91740 30764 ft 463 kts 309°
2026-05-08 18:04 15.70886 -91.94319 30082 ft 465 kts 309°
2026-05-08 18:04 15.72948 -91.96900 29406 ft 464 kts 309°
2026-05-08 18:04 15.74971 -91.99435 29771 ft 453 kts 309°
2026-05-08 18:05 15.76999 -92.01975 30277 ft 462 kts 309°
2026-05-08 18:05 15.79072 -92.04574 30783 ft 471 kts 309°
2026-05-08 18:05 15.81168 -92.07204 31289 ft 475 kts 309°
2026-05-08 18:05 15.83286 -92.09858 31797 ft 476 kts 309°
2026-05-08 18:06 15.85400 -92.12511 32297 ft 476 kts 309°
2026-05-08 18:06 15.87510 -92.15160 32796 ft 475 kts 309°
2026-05-08 18:06 15.89592 -92.17775 33289 ft 474 kts 309°
2026-05-08 18:06 15.91687 -92.20407 33784 ft 472 kts 309°
2026-05-08 18:07 15.93781 -92.23037 34279 ft 471 kts 309°
2026-05-08 18:07 15.95863 -92.25656 34774 ft 470 kts 309°
2026-05-08 18:07 15.97945 -92.28274 35271 ft 470 kts 309°
2026-05-08 18:07 16.00024 -92.30888 35761 ft 468 kts 309°
2026-05-08 18:08 16.02101 -92.33503 36253 ft 467 kts 309°
2026-05-08 18:08 16.04168 -92.36104 36743 ft 467 kts 309°
2026-05-08 18:08 16.06236 -92.38710 37234 ft 467 kts 309°
2026-05-08 18:08 16.08305 -92.41315 37728 ft 467 kts 309°
2026-05-08 18:09 16.10367 -92.43915 38208 ft 466 kts 309°
2026-05-08 18:09 16.12429 -92.46514 38703 ft 464 kts 309°
2026-05-08 18:09 16.14455 -92.49069 39196 ft 463 kts 309°
2026-05-08 18:09 16.16496 -92.51644 39671 ft 461 kts 309°
2026-05-08 18:10 16.18529 -92.54210 40157 ft 458 kts 309°
2026-05-08 18:10 16.20552 -92.56764 40642 ft 455 kts 309°
2026-05-08 18:10 16.22561 -92.59301 41125 ft 451 kts 309°
2026-05-08 18:10 16.24550 -92.61815 41611 ft 447 kts 309°
2026-05-08 18:11 16.26521 -92.64305 42089 ft 443 kts 309°
2026-05-08 18:11 16.28467 -92.66766 42567 ft 438 kts 309°
2026-05-08 18:11 16.30394 -92.69202 42984 ft 435 kts 309°
2026-05-08 18:11 16.32334 -92.71657 42989 ft 442 kts 309°
2026-05-08 18:12 16.36273 -92.76642 42992 ft 454 kts 309°
2026-05-08 18:12 16.40340 -92.81793 43002 ft 466 kts 309°
2026-05-08 18:13 16.44513 -92.87083 43008 ft 477 kts 309°
2026-05-08 18:13 16.48765 -92.92477 43010 ft 484 kts 309°
2026-05-08 18:14 16.53051 -92.97917 43011 ft 484 kts 309°
2026-05-08 18:14 16.57356 -93.03302 43009 ft 483 kts 313°
2026-05-08 18:15 16.62178 -93.08110 43008 ft 483 kts 316°
2026-05-08 18:15 16.67011 -93.12982 43011 ft 484 kts 316°
2026-05-08 18:16 16.71889 -93.17854 43012 ft 485 kts 316°
2026-05-08 18:16 16.76742 -93.22729 43008 ft 485 kts 316°
2026-05-08 18:17 16.81624 -93.27625 43010 ft 487 kts 316°
2026-05-08 18:17 16.86525 -93.32548 43011 ft 490 kts 316°
2026-05-08 18:18 16.91427 -93.37478 43012 ft 487 kts 316°
2026-05-08 18:18 16.96283 -93.42367 43010 ft 483 kts 316°
2026-05-08 18:19 17.01090 -93.47210 43008 ft 483 kts 316°
2026-05-08 18:19 17.05931 -93.52090 43008 ft 484 kts 316°
2026-05-08 18:20 17.10787 -93.56989 43008 ft 484 kts 316°
2026-05-08 18:20 17.15609 -93.61858 43009 ft 480 kts 316°
2026-05-08 18:21 17.20418 -93.66717 43007 ft 481 kts 316°
2026-05-08 18:21 17.25205 -93.71558 43007 ft 483 kts 316°
2026-05-08 18:22 17.30051 -93.76463 43010 ft 482 kts 316°
2026-05-08 18:22 17.34876 -93.81349 43011 ft 482 kts 316°
2026-05-08 18:23 17.39685 -93.86224 43011 ft 481 kts 316°
2026-05-08 18:23 17.44494 -93.91102 43011 ft 481 kts 316°
2026-05-08 18:24 17.49309 -93.95992 43010 ft 481 kts 315°
2026-05-08 18:24 17.54075 -94.00831 43010 ft 480 kts 315°
2026-05-08 18:25 17.58865 -94.05703 43011 ft 479 kts 315°
2026-05-08 18:25 17.63652 -94.10573 43009 ft 479 kts 315°
2026-05-08 18:26 17.68451 -94.15459 43009 ft 480 kts 315°
2026-05-08 18:26 17.73243 -94.20343 43010 ft 480 kts 315°
2026-05-08 18:27 17.77230 -94.24409 43011 ft 481 kts 315°
2026-05-08 18:27 17.82801 -94.30095 43011 ft 480 kts 315°
2026-05-08 18:28 17.87587 -94.34985 43012 ft 480 kts 315°
2026-05-08 18:28 17.92365 -94.39869 43012 ft 479 kts 315°
2026-05-08 18:29 17.97137 -94.44751 43010 ft 478 kts 315°
2026-05-08 18:29 18.01896 -94.49624 43009 ft 478 kts 315°
2026-05-08 18:30 18.06623 -94.54547 43003 ft 479 kts 311°
2026-05-08 18:30 18.10140 -94.60466 43001 ft 480 kts 292°
2026-05-08 18:31 18.11816 -94.67215 43008 ft 482 kts 279°
2026-05-08 18:31 18.12988 -94.74162 43010 ft 481 kts 280°
2026-05-08 18:32 18.13961 -94.79911 43013 ft 480 kts 280°
2026-05-08 18:32 18.15124 -94.86824 43010 ft 479 kts 280°
2026-05-08 18:33 18.16286 -94.93731 43010 ft 481 kts 280°
2026-05-08 18:33 18.17449 -95.00668 43011 ft 481 kts 280°
2026-05-08 18:34 18.18608 -95.07593 43009 ft 480 kts 280°
2026-05-08 18:34 18.19763 -95.14511 43010 ft 479 kts 280°
2026-05-08 18:35 18.20905 -95.21365 43009 ft 478 kts 280°
2026-05-08 18:35 18.22050 -95.28251 43008 ft 478 kts 280°
2026-05-08 18:36 18.23197 -95.35165 43009 ft 480 kts 279°
2026-05-08 18:36 18.24344 -95.42096 43011 ft 481 kts 279°
2026-05-08 18:37 18.25494 -95.49044 43012 ft 482 kts 279°
2026-05-08 18:37 18.26638 -95.55991 43009 ft 481 kts 279°
2026-05-08 18:38 18.27771 -95.62872 43010 ft 479 kts 279°
2026-05-08 18:38 18.28903 -95.69777 43007 ft 478 kts 279°
2026-05-08 18:39 18.30035 -95.76680 43005 ft 479 kts 279°
2026-05-08 18:39 18.31163 -95.83593 43005 ft 480 kts 279°
2026-05-08 18:40 18.32295 -95.90536 43007 ft 481 kts 279°
2026-05-08 18:40 18.33423 -95.97484 43009 ft 482 kts 279°
2026-05-08 18:41 18.34546 -96.04402 43011 ft 482 kts 279°
2026-05-08 18:41 18.35670 -96.11347 43010 ft 480 kts 279°
2026-05-08 18:42 18.36787 -96.18274 43009 ft 479 kts 279°
2026-05-08 18:42 18.37898 -96.25173 43006 ft 478 kts 279°
2026-05-08 18:43 18.39008 -96.32085 43005 ft 480 kts 279°
2026-05-08 18:43 18.40121 -96.39028 43008 ft 481 kts 279°
2026-05-08 18:44 18.41235 -96.45994 43010 ft 482 kts 279°
2026-05-08 18:44 18.42339 -96.52919 43012 ft 481 kts 279°
2026-05-08 18:45 18.43448 -96.59889 43011 ft 483 kts 279°
2026-05-08 18:45 18.44551 -96.66840 43009 ft 480 kts 279°
2026-05-08 18:46 18.45644 -96.73746 43009 ft 480 kts 279°
2026-05-08 18:46 18.46739 -96.80671 43008 ft 479 kts 279°
2026-05-08 18:47 18.47836 -96.87634 43008 ft 483 kts 279°
2026-05-08 18:47 18.48933 -96.94616 43006 ft 487 kts 279°
2026-05-08 18:48 18.50046 -97.01720 43003 ft 495 kts 279°
2026-05-08 18:48 18.51167 -97.08884 43006 ft 496 kts 279°
2026-05-08 18:49 18.52287 -97.16064 43009 ft 495 kts 279°
2026-05-08 18:49 18.53407 -97.23264 43009 ft 498 kts 279°
2026-05-08 18:50 18.54524 -97.30459 43011 ft 496 kts 279°
2026-05-08 18:50 18.55625 -97.37574 43007 ft 495 kts 279°
2026-05-08 18:51 18.56180 -97.41158 42892 ft 495 kts 279°
2026-05-08 18:51 18.56713 -97.44617 42280 ft 468 kts 279°
2026-05-08 18:51 18.57239 -97.48033 41658 ft 473 kts 279°
2026-05-08 18:51 18.57766 -97.51450 41028 ft 470 kts 279°
2026-05-08 18:52 18.58287 -97.54840 40405 ft 465 kts 279°
2026-05-08 18:52 18.58801 -97.58191 39790 ft 461 kts 279°
2026-05-08 18:52 18.59310 -97.61512 39180 ft 457 kts 279°
2026-05-08 18:52 18.59817 -97.64819 38573 ft 456 kts 279°
2026-05-08 18:53 18.60329 -97.68126 37966 ft 457 kts 280°
2026-05-08 18:53 18.60926 -97.71426 37371 ft 460 kts 281°
2026-05-08 18:53 18.61508 -97.74749 36755 ft 462 kts 280°
2026-05-08 18:53 18.62081 -97.78090 36132 ft 463 kts 280°
2026-05-08 18:54 18.62660 -97.81388 35526 ft 463 kts 281°
2026-05-08 18:54 18.63254 -97.84725 34910 ft 463 kts 281°
2026-05-08 18:54 18.63841 -97.88063 34293 ft 464 kts 280°
2026-05-08 18:54 18.64424 -97.91415 33668 ft 464 kts 280°
2026-05-08 18:55 18.65598 -97.98120 32436 ft 466 kts 280°
2026-05-08 18:55 18.66187 -98.01482 31815 ft 467 kts 280°
2026-05-08 18:55 18.66773 -98.04852 31192 ft 467 kts 280°
2026-05-08 18:56 18.67360 -98.08227 30569 ft 469 kts 280°
2026-05-08 18:56 18.67951 -98.11618 29942 ft 471 kts 280°
2026-05-08 18:56 18.68539 -98.15007 29313 ft 467 kts 280°
2026-05-08 18:56 18.69115 -98.18317 28705 ft 462 kts 280°
2026-05-08 18:57 18.69692 -98.21646 28092 ft 459 kts 280°
2026-05-08 18:57 18.70080 -98.23886 27679 ft 456 kts 280°
2026-05-08 18:57 18.70831 -98.28225 26889 ft 451 kts 280°
2026-05-08 18:57 18.71391 -98.31467 26284 ft 447 kts 280°
2026-05-08 18:58 18.71949 -98.34686 25687 ft 444 kts 280°
2026-05-08 18:58 18.72531 -98.37865 25091 ft 439 kts 281°
2026-05-08 18:58 18.73129 -98.41008 24506 ft 435 kts 281°
2026-05-08 18:58 18.73701 -98.44128 23921 ft 431 kts 281°
2026-05-08 18:59 18.74250 -98.47187 23350 ft 427 kts 281°
2026-05-08 18:59 18.74814 -98.50278 22772 ft 423 kts 281°
2026-05-08 18:59 18.75373 -98.53313 22205 ft 419 kts 281°
2026-05-08 18:59 18.75916 -98.56294 21649 ft 416 kts 281°
2026-05-08 19:00 18.76279 -98.58288 21275 ft 414 kts 281°
2026-05-08 19:00 18.77005 -98.62281 20529 ft 411 kts 281°
2026-05-08 19:00 18.77542 -98.65235 19978 ft 408 kts 281°
2026-05-08 19:00 18.78069 -98.68125 19437 ft 405 kts 281°
2026-05-08 19:01 18.78597 -98.71038 18893 ft 401 kts 281°
2026-05-08 19:01 18.79111 -98.73873 18362 ft 384 kts 281°
2026-05-08 19:01 18.79599 -98.76568 17859 ft 365 kts 281°
2026-05-08 19:01 18.80065 -98.79140 17378 ft 349 kts 281°
2026-05-08 19:02 18.80516 -98.81603 17008 ft 333 kts 282°
2026-05-08 19:02 18.81100 -98.83869 16982 ft 308 kts 294°
2026-05-08 19:02 18.82413 -98.85555 16986 ft 295 kts 325°
2026-05-08 19:02 18.84297 -98.86394 16990 ft 297 kts 343°
2026-05-08 19:03 18.86264 -98.87000 16993 ft 300 kts 342°
2026-05-08 19:03 18.88221 -98.87774 16992 ft 300 kts 336°
2026-05-08 19:03 18.90116 -98.88702 16992 ft 300 kts 334°
2026-05-08 19:03 18.92022 -98.89598 16993 ft 300 kts 336°
2026-05-08 19:04 18.93956 -98.90444 16991 ft 300 kts 337°
2026-05-08 19:04 18.95892 -98.91305 16802 ft 306 kts 336°
2026-05-08 19:04 18.97854 -98.92195 16405 ft 306 kts 336°
2026-05-08 19:04 18.99795 -98.93073 16007 ft 301 kts 336°
2026-05-08 19:05 19.01706 -98.93933 15608 ft 297 kts 336°
2026-05-08 19:05 19.03598 -98.94784 15207 ft 295 kts 336°
2026-05-08 19:05 19.05486 -98.95635 14804 ft 294 kts 336°
2026-05-08 19:05 19.07361 -98.96485 14400 ft 292 kts 336°
2026-05-08 19:06 19.09202 -98.97312 14029 ft 290 kts 336°
2026-05-08 19:06 19.11035 -98.98140 14003 ft 284 kts 336°
2026-05-08 19:06 19.12883 -98.98971 13746 ft 289 kts 336°
2026-05-08 19:06 19.14702 -98.99795 13444 ft 280 kts 336°
2026-05-08 19:07 19.16452 -99.00589 13144 ft 274 kts 336°
2026-05-08 19:07 19.18101 -99.01541 12832 ft 268 kts 322°
2026-05-08 19:07 19.19457 -99.02860 12529 ft 262 kts 316°
2026-05-08 19:07 19.20756 -99.04145 12498 ft 251 kts 317°
2026-05-08 19:08 19.22038 -99.05408 12491 ft 253 kts 316°
2026-05-08 19:08 19.23330 -99.06698 12494 ft 257 kts 316°
2026-05-08 19:08 19.24594 -99.08051 12360 ft 261 kts 308°
2026-05-08 19:08 19.25666 -99.09596 12101 ft 261 kts 306°
2026-05-08 19:09 19.26756 -99.11109 12004 ft 253 kts 308°
2026-05-08 19:09 19.27830 -99.12569 12002 ft 249 kts 307°
2026-05-08 19:09 19.28851 -99.13984 11987 ft 235 kts 307°
2026-05-08 19:09 19.29817 -99.15329 11990 ft 225 kts 307°
2026-05-08 19:10 19.30755 -99.16628 11991 ft 222 kts 307°
2026-05-08 19:10 19.31687 -99.17913 11985 ft 223 kts 308°
2026-05-08 19:10 19.32875 -99.18949 11990 ft 223 kts 335°
2026-05-08 19:10 19.34331 -99.19352 11990 ft 212 kts 356°
2026-05-08 19:11 19.35748 -99.19147 11994 ft 201 kts 19°
2026-05-08 19:11 19.36944 -99.18434 11991 ft 196 kts 40°
2026-05-08 19:11 19.37829 -99.17307 11697 ft 204 kts 60°
2026-05-08 19:11 19.38529 -99.15969 11242 ft 211 kts 59°
2026-05-08 19:12 19.39293 -99.14646 10395 ft 201 kts 58°
2026-05-08 19:12 19.40003 -99.13407 9221 ft 194 kts 59°
2026-05-08 19:12 19.40671 -99.12189 8147 ft 187 kts 58°
2026-05-08 19:12 19.41276 -99.11137 7974 ft 164 kts 59°
2026-05-08 19:13 19.41844 -99.10094 7751 ft 161 kts 59°
2026-05-08 19:13 19.42429 -99.09074 7478 ft 161 kts 59°
2026-05-08 19:13 19.42981 -99.08085 7304 ft 146 kts 59°
2026-05-08 19:13 19.43370 -99.07393 7298 ft 38 kts 59°
2026-05-08 19:14 19.43489 -99.07178 7296 ft 34 kts 60°
2026-05-08 19:14 19.43576 -99.07021 7296 ft 15 kts 59°
2026-05-08 19:14 19.43579 -99.06997 7296 ft 2 kts 118°
2026-05-08 19:14 19.43561 -99.06973 7297 ft 6 kts 136°
2026-05-08 19:15 19.43520 -99.06934 7297 ft 2 kts 135°
2026-05-08 19:15 19.43494 -99.06907 7297 ft 8 kts 135°
2026-05-08 19:15 19.43453 -99.06867 7297 ft 0 kts 142°
2026-05-08 19:16 19.43450 -99.06864 7297 ft 3 kts 142°
2026-05-08 19:16 19.43401 -99.06872 7297 ft 14 kts 226°
2026-05-08 19:16 19.43329 -99.06993 7297 ft 20 kts 239°
2026-05-08 19:17 19.43273 -99.07093 7297 ft 9 kts 250°
2026-05-08 19:17 19.43250 -99.07145 7297 ft 5 kts 185°
2026-05-08 19:17 19.43224 -99.07120 7297 ft 3 kts 156°
2026-05-08 19:17 19.43196 -99.07125 7297 ft 8 kts 195°
2026-05-08 19:18 19.43178 -99.07150 7297 ft 8 kts 242°
2026-05-08 19:18 19.43127 -99.07242 7297 ft 20 kts 238°
2026-05-08 19:18 19.43063 -99.07357 7297 ft 18 kts 239°
2026-05-08 19:18 19.42999 -99.07471 7297 ft 19 kts 238°
2026-05-08 19:19 19.42954 -99.07550 7297 ft 19 kts 239°
2026-05-08 19:19 19.42895 -99.07653 7297 ft 3 kts 216°
2026-05-08 19:19 19.42890 -99.07649 7297 ft 0 kts 118°
2026-05-08 19:19 19.42859 -99.07632 7297 ft 6 kts 172°
2026-05-08 19:20 19.42838 -99.07651 7297 ft 0 kts 241°